Flag for Austria Weather past 2 weeks in Wals-Siezenheim, Salzburg, Austria

Now
37 °F

Clear.


Feels Like: 33 °F
Forecast: 33 / 58 °F
Wind: 6 mph from Southeast

Location: Salzburg-Flughafen


UV Index: 0 (Low)

Visibility: 10 mi


Pressure: 30.04 "Hg

Humidity: 75%

Dew point: 30 °F

Location of Wals-SiezenheimLocation

Historic Weather in Wals-Siezenheim

°F

Wals-Siezenheim temperature yesterday

Maximum temperature yesterday: 45 °F (at 1:50 PM)
Minimum temperature yesterday: 34 °F (at 4:50 AM)
Average temperature yesterday: 39 °F

Past Weeks' High & Low Weather Summary

 TemperatureHumidityPressure
High73 °F (Apr 3, 2:50 PM)100% (Apr 5, 12:20 AM)30.36 "Hg (Apr 5, 12:20 AM)
Low27 °F (Apr 17, 5:20 AM)27% (Apr 3, 2:50 PM)29.65 "Hg (Apr 3, 4:20 PM)
Average50 °F75%30.05 "Hg
* Reported Apr 2 10:50 PM — Apr 17 10:20 PM, Wals-Siezenheim, Weather by CustomWeather, © 2014

Note: Actual official high and low records may vary slightly from our data, if they occured in-between our weather recording intervals... More about our weather records

Advertising

Historic Weather Conditions — Data for Previous 24 hours

 ConditionsComfort  
Time TempWeatherWind HumidityBarometerVisibility
10:20 PM
Apr 17
41 °FClear.8 mph70%30.04 "Hg10 mi
9:50 PM39 °FClear.5 mph75%30.04 "Hg10 mi
9:20 PM43 °FClear.6 mph66%30.04 "Hg10 mi
8:50 PM43 °FSunny.2 mph71%30.04 "Hg10 mi
8:20 PM48 °FSunny.5 mph50%30.04 "Hg10 mi
7:50 PM50 °FPassing clouds.5 mph47%30.04 "HgN/A
6:50 PM52 °FPassing clouds.6 mph41%30.07 "HgN/A
6:20 PM54 °FPassing clouds.5 mph41%30.07 "HgN/A
5:50 PM54 °FPassing clouds.5 mph41%30.07 "HgN/A
5:20 PM54 °FPassing clouds.1 mph41%30.09 "HgN/A
4:50 PM54 °FPassing clouds.5 mph35%30.09 "HgN/A
4:20 PM54 °FPassing clouds.2 mph38%30.12 "HgN/A
3:50 PM52 °FPassing clouds.6 mph41%30.12 "HgN/A
3:20 PM52 °FPassing clouds.3 mph44%30.15 "HgN/A
2:50 PM52 °FPassing clouds.5 mph41%30.15 "HgN/A
2:20 PM50 °FPassing clouds.3 mph43%30.18 "HgN/A
1:50 PM50 °FPassing clouds.5 mph40%30.18 "HgN/A
1:20 PM50 °FPassing clouds.5 mph43%30.21 "HgN/A
12:50 PM50 °FPassing clouds.2 mph43%30.21 "HgN/A
12:20 PM48 °FPassing clouds.3 mph46%30.21 "HgN/A
11:50 AM48 °FPassing clouds.5 mph46%30.24 "HgN/A
11:20 AM48 °FPassing clouds.6 mph46%30.24 "HgN/A
10:50 AM46 °FPassing clouds.2 mph57%30.27 "HgN/A
10:20 AM45 °FPassing clouds.3 mph61%30.27 "HgN/A
9:50 AM39 °FPassing clouds.5 mph75%30.30 "HgN/A
9:20 AM37 °FPassing clouds.6 mph81%30.30 "HgN/A
8:50 AM36 °FPassing clouds.5 mph93%30.30 "Hg5 mi
8:20 AM32 °FSnow. Cloudy.5 mph100%30.30 "Hg1 mi
7:50 AM30 °FIce fog.5 mph100%30.30 "Hg0 mi
7:20 AM30 °FIce fog.3 mph100%30.30 "Hg0 mi
6:50 AM28 °FIce fog.3 mph100%30.30 "Hg0 mi
6:20 AM28 °FChilly.2 mph100%30.30 "Hg0 mi
5:50 AM28 °FChilly.3 mph100%30.30 "Hg0 mi
5:20 AM27 °FLight fog.3 mph100%30.30 "Hg0 mi
4:50 AM28 °FLight fog.2 mph100%30.30 "Hg0 mi
4:20 AM28 °FLight fog.1 mph100%30.33 "Hg0 mi
3:50 AM28 °FLight fog.1 mph100%30.33 "Hg0 mi
3:20 AM30 °FPassing clouds.1 mph100%30.33 "Hg5 mi
2:50 AM32 °FPassing clouds.1 mph100%30.33 "Hg4 mi
2:20 AM32 °FIce fog.1 mph100%30.33 "Hg5 mi
1:50 AM32 °FChilly.1 mph100%30.33 "Hg4 mi
1:20 AM34 °FPassing clouds.3 mph100%30.36 "Hg5 mi
12:50 AM34 °FOvercast.1 mph100%30.36 "HgN/A
12:20 AM34 °FOvercast.2 mph100%30.36 "HgN/A
11:50 PM
Apr 16
36 °FOvercast.2 mph93%30.36 "HgN/A
Weather by CustomWeather, © 2014

See weather overview